Litchfield, MN

1:42 AM CDT on October 23, 2017 (GMT -0500)
Litchfield Municipal

Weather History for KLJF - September, 2012

Change the Weather History Date:

Sunday, September 23, 2012

  Actual Average Record
Temperature  
Mean Temperature 46 °F -  
Max Temperature 62 °F 65 °F 86 °F (2007)
Min Temperature 30 °F 41 °F 28 °F (1976)
Degree Days  
Heating Degree Days 19    
Moisture  
Dew Point 27 °F    
Average Humidity 55    
Maximum Humidity 93    
Minimum Humidity 20    
Precipitation  
Precipitation 0.00 in - - ()
Sea Level Pressure  
Sea Level Pressure 30.26 in    
Wind  
Wind Speed 4 mph (WNW)    
Max Wind Speed 12 mph    
Max Gust Speed 18 mph    
Visibility 10 miles    
Events      
Averages and records for this station are not official NWS values.
T = Trace of Precipitation, MM = Missing Value Source: NWS Daily Summary

Daily Weather History Graph

Daily Weather History Graph

Search for Another Location

Airport or City:

Trip Planner

Search our weather history database for the weather conditions in past years. The results will help you decide how hot, cold, wet, or windy it might be!

Date:

Astronomy

Sep. 23, 2012 Rise Set
Actual Time 7:06 AM CDT 7:12 PM CDT
Civil Twilight 6:37 AM CDT 7:41 PM CDT
Nautical Twilight 6:03 AM CDT 8:16 PM CDT
Astronomical Twilight 5:27 AM CDT 8:51 PM CDT
Moon 3:28 PM CDT 12:04 AM CDT
Length of Visible Light 13h 04m
Length of Day
12h 05m
First Quarter, 60% of the Moon is Illuminated
Sep 23
First Quarter
Sep 29
Full
Oct 8
Last Quarter
Oct 15
New
Oct 21
First Quarter

Hourly Weather History & Observations

Time (CDT) Temp. Windchill Dew Point Humidity Pressure Visibility Wind Dir Wind Speed Gust Speed Precip Events Conditions
12:13 AM 41.0 °F 38.0 °F 28.4 °F 61% 30.27 in 10.0 mi NW 4.6 mph - N/A   Clear
12:33 AM 39.2 °F 35.0 °F 28.4 °F 65% 30.27 in 10.0 mi NW 5.8 mph - N/A   Clear
12:53 AM 39.2 °F 35.0 °F 28.4 °F 65% 30.27 in 10.0 mi WNW 5.8 mph - N/A   Clear
1:13 AM 39.2 °F 35.0 °F 28.4 °F 65% 30.27 in 10.0 mi WNW 5.8 mph - N/A   Clear
1:33 AM 39.2 °F 35.0 °F 30.2 °F 70% 30.28 in 10.0 mi WNW 5.8 mph - N/A   Clear
1:53 AM 37.4 °F 33.8 °F 28.4 °F 70% 30.29 in 10.0 mi NW 4.6 mph - N/A   Clear
2:13 AM 37.4 °F 33.8 °F 28.4 °F 70% 30.29 in 10.0 mi NW 4.6 mph - N/A   Clear
2:33 AM 37.4 °F 33.8 °F 28.4 °F 70% 30.29 in 10.0 mi WNW 4.6 mph - N/A   Clear
2:53 AM 37.4 °F 34.9 °F 28.4 °F 70% 30.29 in 10.0 mi WNW 3.5 mph - N/A   Clear
3:13 AM 37.4 °F 33.8 °F 30.2 °F 75% 30.29 in 10.0 mi WNW 4.6 mph - N/A   Clear
3:33 AM 37.4 °F 33.8 °F 30.2 °F 75% 30.29 in 10.0 mi WNW 4.6 mph - N/A   Clear
3:53 AM 37.4 °F 33.8 °F 30.2 °F 75% 30.29 in 10.0 mi WNW 4.6 mph - N/A   Clear
4:13 AM 35.6 °F 32.8 °F 30.2 °F 81% 30.29 in 10.0 mi WNW 3.5 mph - N/A   Clear
4:33 AM 33.8 °F - 30.2 °F 87% 30.29 in 10.0 mi Calm Calm - N/A   Clear
4:53 AM 33.8 °F - 28.4 °F 81% 30.29 in 10.0 mi Calm Calm - N/A   Clear
5:13 AM 33.8 °F 30.8 °F 30.2 °F 87% 30.29 in 10.0 mi West 3.5 mph - N/A   Clear
5:33 AM 33.8 °F - 30.2 °F 87% 30.29 in 10.0 mi Calm Calm - N/A   Clear
5:53 AM 32.0 °F - 30.2 °F 93% 30.29 in 10.0 mi Calm Calm - N/A   Clear
6:14 AM 30.2 °F - 28.4 °F 93% 30.30 in 10.0 mi Calm Calm - N/A   Clear
6:33 AM 30.2 °F - 28.4 °F 93% 30.30 in 10.0 mi Calm Calm - N/A   Clear
6:53 AM 30.2 °F - 28.4 °F 93% 30.30 in 10.0 mi Calm Calm - N/A   Clear
7:14 AM 30.2 °F - 28.4 °F 93% 30.31 in 10.0 mi Calm Calm - N/A   Clear
7:33 AM 30.2 °F - 28.4 °F 93% 30.31 in 10.0 mi Calm Calm - N/A   Clear
7:53 AM 33.8 °F - 32.0 °F 93% 30.32 in 10.0 mi Calm Calm - N/A   Clear
8:13 AM 39.2 °F - 37.4 °F 93% 30.32 in 10.0 mi Calm Calm - N/A   Clear
8:33 AM 44.6 °F 42.2 °F 37.4 °F 76% 30.32 in 10.0 mi WNW 4.6 mph - N/A   Clear
8:53 AM 46.4 °F 45.2 °F 35.6 °F 66% 30.32 in 10.0 mi NW 3.5 mph - N/A   Clear
9:13 AM 46.4 °F 43.5 °F 35.6 °F 66% 30.33 in 10.0 mi WNW 5.8 mph - N/A   Clear
9:33 AM 48.2 °F - 33.8 °F 58% 30.33 in 10.0 mi NW 6.9 mph - N/A   Clear
9:53 AM 51.8 °F - 30.2 °F 44% 30.33 in 10.0 mi NW 6.9 mph - N/A   Clear
10:13 AM 51.8 °F - 28.4 °F 41% 30.33 in 10.0 mi NW 9.2 mph - N/A   Clear
10:33 AM 53.6 °F - 26.6 °F 35% 30.32 in 10.0 mi WNW 6.9 mph - N/A   Clear
10:54 AM 55.4 °F - 26.6 °F 33% 30.32 in 10.0 mi NW 9.2 mph - N/A   Clear
11:13 AM 55.4 °F - 26.6 °F 33% 30.32 in 10.0 mi NW 9.2 mph - N/A   Clear
11:33 AM 55.4 °F - 26.6 °F 33% 30.32 in 10.0 mi NW 11.5 mph - N/A   Clear
11:53 AM 55.4 °F - 26.6 °F 33% 30.32 in 10.0 mi WNW 9.2 mph 16.1 mph N/A   Clear
12:13 PM 55.4 °F - 26.6 °F 33% - 10.0 mi WNW 8.1 mph - N/A   Clear
12:33 PM 57.2 °F - 26.6 °F 31% 30.31 in 10.0 mi WNW 9.2 mph - N/A   Clear
12:53 PM 57.2 °F - 26.6 °F 31% 30.31 in 10.0 mi West 8.1 mph 16.1 mph N/A   Clear
1:13 PM 57.2 °F - 24.8 °F 29% 30.30 in 10.0 mi West 9.2 mph 18.4 mph N/A   Clear
1:33 PM 57.2 °F - 23.0 °F 27% 30.29 in 10.0 mi WNW 8.1 mph - N/A   Clear
1:53 PM 59.0 °F - 24.8 °F 27% 30.28 in 10.0 mi WNW 8.1 mph - N/A   Clear
2:13 PM 60.8 °F - 24.8 °F 25% 30.28 in 10.0 mi West 11.5 mph 16.1 mph N/A   Clear
2:33 PM 60.8 °F - 24.8 °F 25% 30.27 in 10.0 mi West 6.9 mph - N/A   Clear
2:53 PM 60.8 °F - 23.0 °F 23% 30.27 in 10.0 mi West 6.9 mph - N/A   Clear
3:04 PM 60.8 °F - 21.2 °F 22% 30.26 in 10.0 mi WNW 8.1 mph 16.1 mph N/A   Clear
3:33 PM 60.8 °F - 23.0 °F 23% 30.25 in 10.0 mi WNW 8.1 mph - N/A   Clear
3:54 PM 62.6 °F - 23.0 °F 22% 30.24 in 10.0 mi WNW 8.1 mph - N/A   Clear
4:13 PM 62.6 °F - 23.0 °F 22% 30.23 in 10.0 mi North - - N/A   Clear
4:34 PM 62.6 °F - 24.8 °F 24% 30.22 in 10.0 mi West 9.2 mph - N/A   Clear
4:53 PM 62.6 °F - 21.2 °F 20% 30.22 in 10.0 mi WNW 10.4 mph - N/A   Clear
5:13 PM 62.6 °F - 23.0 °F 22% 30.21 in 10.0 mi WNW 4.6 mph - N/A   Clear
5:34 PM 60.8 °F - 23.0 °F 23% 30.20 in 10.0 mi West 6.9 mph - N/A   Clear
5:53 PM 60.8 °F - 24.8 °F 25% 30.20 in 10.0 mi West 4.6 mph - N/A   Clear
6:13 PM 60.8 °F - 24.8 °F 25% 30.20 in 10.0 mi West 4.6 mph - N/A   Clear
6:33 PM 59.0 °F - 24.8 °F 27% 30.20 in 10.0 mi West 4.6 mph - N/A   Clear
6:53 PM 55.4 °F - 24.8 °F 31% 30.20 in 10.0 mi West 3.5 mph - N/A   Clear
7:13 PM 51.8 °F - 24.8 °F 35% 30.19 in 10.0 mi Calm Calm - N/A   Clear
7:33 PM 48.2 °F - 24.8 °F 40% 30.19 in 10.0 mi Calm Calm - N/A   Clear
7:53 PM 46.4 °F - 24.8 °F 43% 30.20 in 10.0 mi Calm Calm - N/A   Clear
8:13 PM 44.6 °F - 26.6 °F 49% 30.20 in 10.0 mi Calm Calm - N/A   Clear
8:33 PM 41.0 °F - 26.6 °F 57% 30.20 in 10.0 mi Calm Calm - N/A   Clear
8:53 PM 39.2 °F - 24.8 °F 56% 30.20 in 10.0 mi Calm Calm - N/A   Clear
9:13 PM 37.4 °F 34.9 °F 26.6 °F 65% 30.20 in 10.0 mi SW 3.5 mph - N/A   Clear
9:33 PM 37.4 °F - 24.8 °F 60% 30.20 in 10.0 mi Calm Calm - N/A   Clear
9:53 PM 35.6 °F - 24.8 °F 65% 30.19 in 10.0 mi Calm Calm - N/A   Clear
10:13 PM 35.6 °F - 26.6 °F 70% 30.19 in 10.0 mi Calm Calm - N/A   Clear
10:33 PM 37.4 °F - 28.4 °F 70% 30.19 in 10.0 mi Calm Calm - N/A   Clear
10:53 PM 35.6 °F 32.8 °F 28.4 °F 75% 30.18 in 10.0 mi SSW 3.5 mph - N/A   Clear
11:13 PM 37.4 °F - 26.6 °F 65% 30.17 in 10.0 mi Calm Calm - N/A   Clear
11:33 PM 37.4 °F - 28.4 °F 70% 30.16 in 10.0 mi Calm Calm - N/A   Clear
11:53 PM 37.4 °F - 28.4 °F 70% 30.16 in 10.0 mi Calm Calm - N/A   Clear